N221S YSSY-NZAA

Flight info

Callsign N221S
Flight time 2h 59m
Altitude 41000
Route EVONN L521 LUNBI
Aircraft C25C/M-SDE2E3FGHRWXY/LB1

Departure

Time 2026-04-22 18:10
Airport Sydney Kingsford Smith International Airport (YSSY)

Arrival

Time 2026-04-22 21:09
Airport Auckland International Airport (NZAA)
Time Latitude Longitude Altitude Speed Heading
2026-04-22 17:47 -33.93379 151.18935 23 ft 0 kts 275°
2026-04-22 17:58 -33.93384 151.18926 25 ft 2 kts 211°
2026-04-22 17:59 -33.93398 151.18917 25 ft 3 kts 209°
2026-04-22 17:59 -33.93405 151.18895 23 ft 4 kts 265°
2026-04-22 17:59 -33.93428 151.18877 25 ft 5 kts 186°
2026-04-22 17:59 -33.93474 151.18859 25 ft 8 kts 189°
2026-04-22 18:00 -33.93516 151.18851 25 ft 10 kts 190°
2026-04-22 18:00 -33.93596 151.18809 25 ft 10 kts 253°
2026-04-22 18:00 -33.93614 151.18733 24 ft 9 kts 253°
2026-04-22 18:00 -33.93633 151.18651 23 ft 12 kts 254°
2026-04-22 18:01 -33.93659 151.18542 23 ft 15 kts 254°
2026-04-22 18:01 -33.93687 151.18425 23 ft 14 kts 254°
2026-04-22 18:01 -33.93713 151.18313 23 ft 14 kts 255°
2026-04-22 18:01 -33.93738 151.18206 26 ft 13 kts 254°
2026-04-22 18:02 -33.93762 151.18103 23 ft 13 kts 254°
2026-04-22 18:02 -33.93787 151.17999 23 ft 13 kts 254°
2026-04-22 18:02 -33.93814 151.17886 23 ft 14 kts 254°
2026-04-22 18:02 -33.93841 151.17770 24 ft 14 kts 254°
2026-04-22 18:03 -33.93867 151.17657 22 ft 14 kts 253°
2026-04-22 18:03 -33.93894 151.17548 22 ft 11 kts 252°
2026-04-22 18:03 -33.93899 151.17527 23 ft 0 kts 254°
2026-04-22 18:04 -33.93899 151.17526 22 ft 2 kts 253°
2026-04-22 18:04 -33.93910 151.17478 20 ft 10 kts 253°
2026-04-22 18:04 -33.93938 151.17363 20 ft 17 kts 255°
2026-04-22 18:04 -33.93966 151.17253 22 ft 10 kts 237°
2026-04-22 18:05 -33.94022 151.17238 24 ft 9 kts 167°
2026-04-22 18:05 -33.94085 151.17254 22 ft 11 kts 167°
2026-04-22 18:05 -33.94171 151.17277 22 ft 13 kts 167°
2026-04-22 18:05 -33.94259 151.17300 23 ft 13 kts 168°
2026-04-22 18:06 -33.94345 151.17321 23 ft 13 kts 167°
2026-04-22 18:06 -33.94431 151.17344 24 ft 13 kts 167°
2026-04-22 18:06 -33.94521 151.17367 25 ft 13 kts 167°
2026-04-22 18:06 -33.94615 151.17392 24 ft 14 kts 167°
2026-04-22 18:07 -33.94713 151.17417 24 ft 15 kts 167°
2026-04-22 18:07 -33.94817 151.17444 23 ft 15 kts 168°
2026-04-22 18:07 -33.94921 151.17471 25 ft 15 kts 168°
2026-04-22 18:07 -33.95031 151.17500 23 ft 17 kts 168°
2026-04-22 18:08 -33.95162 151.17535 23 ft 20 kts 167°
2026-04-22 18:08 -33.95232 151.17552 23 ft 0 kts 170°
2026-04-22 18:08 -33.95253 151.17562 22 ft 6 kts 142°
2026-04-22 18:08 -33.95264 151.17608 22 ft 7 kts 77°
2026-04-22 18:09 -33.95253 151.17664 22 ft 7 kts 79°
2026-04-22 18:09 -33.95242 151.17720 22 ft 7 kts 71°
2026-04-22 18:09 -33.95209 151.17747 23 ft 6 kts
2026-04-22 18:09 -33.95159 151.17736 21 ft 18 kts 348°
2026-04-22 18:10 -33.94690 151.17610 26 ft 117 kts 347°
2026-04-22 18:10 -33.93727 151.17377 652 ft 153 kts 349°
2026-04-22 18:10 -33.92587 151.17121 1608 ft 177 kts 350°
2026-04-22 18:10 -33.91336 151.16848 2782 ft 188 kts 350°
2026-04-22 18:11 -33.90033 151.16550 4021 ft 193 kts 349°
2026-04-22 18:11 -33.88710 151.16241 5327 ft 194 kts 349°
2026-04-22 18:11 -33.87236 151.15888 5755 ft 245 kts 351°
2026-04-22 18:11 -33.85470 151.15477 6317 ft 269 kts 351°
2026-04-22 18:12 -33.83622 151.15090 7263 ft 271 kts 359°
2026-04-22 18:12 -33.81876 151.15763 8088 ft 266 kts 40°
2026-04-22 18:12 -33.81089 151.16864 8657 ft 262 kts 63°
2026-04-22 18:12 -33.80878 151.19676 9772 ft 260 kts 109°
2026-04-22 18:13 -33.81927 151.21432 10565 ft 263 kts 135°
2026-04-22 18:13 -33.83260 151.22959 11303 ft 265 kts 134°
2026-04-22 18:13 -33.84512 151.24585 12072 ft 266 kts 130°
2026-04-22 18:13 -33.85578 151.26386 12788 ft 270 kts 121°
2026-04-22 18:14 -33.86424 151.28418 13530 ft 273 kts 116°
2026-04-22 18:14 -33.87287 151.30474 14236 ft 277 kts 118°
2026-04-22 18:14 -33.88203 151.32528 14873 ft 279 kts 120°
2026-04-22 18:14 -33.89144 151.34583 15517 ft 281 kts 120°
2026-04-22 18:15 -33.90077 151.36672 16131 ft 284 kts 120°
2026-04-22 18:15 -33.91039 151.38817 16299 ft 301 kts 120°
2026-04-22 18:15 -33.92054 151.41102 16311 ft 317 kts 120°
2026-04-22 18:15 -33.93112 151.43456 16341 ft 328 kts 120°
2026-04-22 18:16 -33.94184 151.45876 16680 ft 327 kts 120°
2026-04-22 18:16 -33.95261 151.48279 17039 ft 325 kts 120°
2026-04-22 18:16 -33.96327 151.50680 17382 ft 325 kts 120°
2026-04-22 18:16 -33.97399 151.53073 17739 ft 324 kts 120°
2026-04-22 18:17 -33.98471 151.55490 18548 ft 324 kts 121°
2026-04-22 18:17 -33.99522 151.57850 19882 ft 318 kts 121°
2026-04-22 18:17 -34.00562 151.60193 21009 ft 317 kts 121°
2026-04-22 18:17 -34.01602 151.62530 22177 ft 315 kts 120°
2026-04-22 18:18 -34.02627 151.64844 23341 ft 312 kts 121°
2026-04-22 18:18 -34.03650 151.67152 24384 ft 311 kts 121°
2026-04-22 18:18 -34.04688 151.69482 24910 ft 325 kts 122°
2026-04-22 18:18 -34.05803 151.71988 24925 ft 353 kts 121°
2026-04-22 18:19 -34.06992 151.74670 25294 ft 366 kts 121°
2026-04-22 18:19 -34.08175 151.77379 26192 ft 363 kts 121°
2026-04-22 18:19 -34.09364 151.80057 27036 ft 362 kts 122°
2026-04-22 18:19 -34.10544 151.82730 27856 ft 361 kts 121°
2026-04-22 18:20 -34.11727 151.85397 28676 ft 360 kts 122°
2026-04-22 18:20 -34.12894 151.88060 29487 ft 359 kts 122°
2026-04-22 18:20 -34.14054 151.90682 30281 ft 358 kts 122°
2026-04-22 18:20 -34.15220 151.93338 30966 ft 357 kts 122°
2026-04-22 18:21 -34.16387 151.95983 31620 ft 355 kts 122°
2026-04-22 18:21 -34.17545 151.98621 32237 ft 354 kts 123°
2026-04-22 18:21 -34.18698 152.01245 32840 ft 354 kts 123°
2026-04-22 18:21 -34.19769 152.03930 33418 ft 358 kts 116°
2026-04-22 18:22 -34.20570 152.06780 33983 ft 358 kts 116°
2026-04-22 18:22 -34.21394 152.09551 34494 ft 357 kts 116°
2026-04-22 18:22 -34.22232 152.12388 34937 ft 358 kts 116°
2026-04-22 18:22 -34.23041 152.15178 35360 ft 358 kts 116°
2026-04-22 18:23 -34.23855 152.17987 35779 ft 359 kts 116°
2026-04-22 18:23 -34.24680 152.20835 36204 ft 359 kts 116°
2026-04-22 18:23 -34.25512 152.23684 36627 ft 359 kts 116°
2026-04-22 18:24 -34.27165 152.29392 37466 ft 360 kts 115°
2026-04-22 18:24 -34.27993 152.32251 37885 ft 360 kts 116°
2026-04-22 18:24 -34.29649 152.37978 38704 ft 361 kts 115°
2026-04-22 18:25 -34.30474 152.40841 39095 ft 361 kts 115°
2026-04-22 18:25 -34.31303 152.43717 39399 ft 362 kts 115°
2026-04-22 18:25 -34.32123 152.46558 39699 ft 362 kts 115°
2026-04-22 18:26 -34.33782 152.52328 40303 ft 364 kts 115°
2026-04-22 18:26 -34.34610 152.55214 40664 ft 363 kts 115°
2026-04-22 18:26 -34.35437 152.58100 40972 ft 363 kts 115°
2026-04-22 18:26 -34.36268 152.60994 41228 ft 366 kts 115°
2026-04-22 18:27 -34.37968 152.66931 41338 ft 381 kts 114°
2026-04-22 18:27 -34.39733 152.73117 41352 ft 396 kts 114°
2026-04-22 18:28 -34.41564 152.79546 41353 ft 410 kts 114°
2026-04-22 18:28 -34.43448 152.86171 41353 ft 420 kts 114°
2026-04-22 18:29 -34.45351 152.92885 41345 ft 426 kts 114°
2026-04-22 18:29 -34.46957 152.98564 41349 ft 426 kts 114°
2026-04-22 18:30 -34.49822 153.08722 41350 ft 427 kts 114°
2026-04-22 18:31 -34.51704 153.15410 41345 ft 428 kts 114°
2026-04-22 18:31 -34.53637 153.22298 41348 ft 429 kts 114°
2026-04-22 18:32 -34.55555 153.29151 41348 ft 429 kts 113°
2026-04-22 18:32 -34.57466 153.35998 41348 ft 429 kts 113°
2026-04-22 18:33 -34.59376 153.42861 41348 ft 428 kts 113°
2026-04-22 18:33 -34.61279 153.49708 41342 ft 427 kts 113°
2026-04-22 18:34 -34.63153 153.56468 41343 ft 426 kts 113°
2026-04-22 18:34 -34.65025 153.63236 41341 ft 425 kts 113°
2026-04-22 18:35 -34.66900 153.70036 41337 ft 424 kts 113°
2026-04-22 18:35 -34.68766 153.76818 41340 ft 423 kts 113°
2026-04-22 18:36 -34.70626 153.83602 41334 ft 423 kts 113°
2026-04-22 18:36 -34.72484 153.90381 41332 ft 422 kts 113°
2026-04-22 18:37 -34.74338 153.97169 41333 ft 422 kts 112°
2026-04-22 18:37 -34.76172 154.03903 41332 ft 422 kts 112°
2026-04-22 18:38 -34.78013 154.10682 41338 ft 421 kts 112°
2026-04-22 18:38 -34.79848 154.17453 41334 ft 421 kts 112°
2026-04-22 18:39 -34.82593 154.27608 41339 ft 421 kts 112°
2026-04-22 18:39 -34.84417 154.34383 41339 ft 420 kts 112°
2026-04-22 18:40 -34.86227 154.41114 41339 ft 421 kts 112°
2026-04-22 18:40 -34.88043 154.47887 41340 ft 420 kts 112°
2026-04-22 18:41 -34.89853 154.54654 41338 ft 420 kts 112°
2026-04-22 18:41 -34.91659 154.61429 41340 ft 420 kts 112°
2026-04-22 18:42 -34.93462 154.68207 41343 ft 420 kts 111°
2026-04-22 18:42 -34.95263 154.74998 41337 ft 420 kts 112°
2026-04-22 18:43 -34.97059 154.81778 41337 ft 420 kts 112°
2026-04-22 18:43 -34.98850 154.88560 41337 ft 420 kts 111°
2026-04-22 18:44 -35.00637 154.95346 41339 ft 420 kts 111°
2026-04-22 18:44 -35.01980 155.00458 41339 ft 421 kts 111°
2026-04-22 18:45 -35.03760 155.07255 41340 ft 420 kts 111°
2026-04-22 18:45 -35.05537 155.14055 41340 ft 420 kts 111°
2026-04-22 18:46 -35.07297 155.20805 41340 ft 420 kts 111°
2026-04-22 18:46 -35.09069 155.27615 41341 ft 419 kts 111°
2026-04-22 18:47 -35.10832 155.34414 41343 ft 419 kts 111°
2026-04-22 18:47 -35.12589 155.41207 41340 ft 419 kts 111°
2026-04-22 18:48 -35.14340 155.47998 41340 ft 419 kts 111°
2026-04-22 18:48 -35.16086 155.54782 41339 ft 419 kts 111°
2026-04-22 18:49 -35.17818 155.61526 41355 ft 418 kts 111°
2026-04-22 18:49 -35.19558 155.68321 41338 ft 418 kts 111°
2026-04-22 18:50 -35.21294 155.75116 41335 ft 418 kts 111°
2026-04-22 18:50 -35.23022 155.81907 41335 ft 418 kts 111°
2026-04-22 18:51 -35.24747 155.88700 41339 ft 418 kts 111°
2026-04-22 18:51 -35.26465 155.95483 41337 ft 418 kts 111°
2026-04-22 18:52 -35.28186 156.02286 41334 ft 417 kts 111°
2026-04-22 18:52 -35.29887 156.09034 41334 ft 417 kts 110°
2026-04-22 18:53 -35.31593 156.15826 41335 ft 417 kts 110°
2026-04-22 18:53 -35.33297 156.22629 41335 ft 417 kts 110°
2026-04-22 18:54 -35.34995 156.29417 41332 ft 417 kts 110°
2026-04-22 18:54 -35.36690 156.36215 41332 ft 417 kts 110°
2026-04-22 18:55 -35.38381 156.43009 41335 ft 416 kts 110°
2026-04-22 18:55 -35.40065 156.49800 41335 ft 416 kts 110°
2026-04-22 18:56 -35.41745 156.56593 41332 ft 416 kts 110°
2026-04-22 18:56 -35.43411 156.63351 41331 ft 416 kts 110°
2026-04-22 18:57 -35.45085 156.70155 41331 ft 416 kts 110°
2026-04-22 18:57 -35.46755 156.76953 41328 ft 416 kts 110°
2026-04-22 18:58 -35.48424 156.83773 41328 ft 416 kts 110°
2026-04-22 18:58 -35.50084 156.90577 41329 ft 417 kts 110°
2026-04-22 18:59 -35.51732 156.97352 41326 ft 417 kts 110°
2026-04-22 18:59 -35.53387 157.04169 41325 ft 417 kts 110°
2026-04-22 19:00 -35.55038 157.10987 41323 ft 417 kts 110°
2026-04-22 19:00 -35.56686 157.17810 41324 ft 417 kts 110°
2026-04-22 19:01 -35.58330 157.24640 41323 ft 417 kts 109°
2026-04-22 19:01 -35.59970 157.31477 41325 ft 417 kts 109°
2026-04-22 19:02 -35.61608 157.38318 41324 ft 417 kts 109°
2026-04-22 19:02 -35.63233 157.45119 41326 ft 417 kts 109°
2026-04-22 19:03 -35.64863 157.51964 41326 ft 417 kts 109°
2026-04-22 19:03 -35.66490 157.58814 41326 ft 418 kts 109°
2026-04-22 19:04 -35.68127 157.65725 41329 ft 423 kts 109°
2026-04-22 19:04 -35.69779 157.72734 41330 ft 428 kts 109°
2026-04-22 19:05 -35.71437 157.79765 41328 ft 432 kts 109°
2026-04-22 19:05 -35.73111 157.86896 41328 ft 435 kts 109°
2026-04-22 19:06 -35.74792 157.94087 41329 ft 438 kts 109°
2026-04-22 19:07 -35.77323 158.04943 41327 ft 441 kts 109°
2026-04-22 19:07 -35.78776 158.12218 41327 ft 431 kts 104°
2026-04-22 19:07 -35.79381 158.15789 41320 ft 420 kts 105°
2026-04-22 19:08 -35.79985 158.19269 41310 ft 411 kts 105°
2026-04-22 19:08 -35.81148 158.26009 41311 ft 394 kts 105°
2026-04-22 19:09 -35.82256 158.32500 41309 ft 380 kts 105°
2026-04-22 19:09 -35.83169 158.37830 41312 ft 388 kts 105°
2026-04-22 19:10 -35.84487 158.45579 41315 ft 402 kts 104°
2026-04-22 19:10 -35.85642 158.52412 41327 ft 412 kts 105°
2026-04-22 19:11 -35.86815 158.59355 41328 ft 420 kts 104°
2026-04-22 19:11 -35.88009 158.66466 41330 ft 427 kts 104°
2026-04-22 19:12 -35.89219 158.73685 41326 ft 433 kts 104°
2026-04-22 19:12 -35.90437 158.81005 41327 ft 437 kts 104°
2026-04-22 19:13 -35.91667 158.88395 41325 ft 441 kts 104°
2026-04-22 19:13 -35.92889 158.95790 41327 ft 444 kts 104°
2026-04-22 19:14 -35.94112 159.03219 41321 ft 434 kts 104°
2026-04-22 19:14 -35.94702 159.06817 41312 ft 422 kts 104°
2026-04-22 19:14 -35.95284 159.10357 41303 ft 421 kts 103°
2026-04-22 19:15 -35.96235 159.16156 41307 ft 421 kts 103°
2026-04-22 19:15 -35.97586 159.24453 41309 ft 422 kts 103°
2026-04-22 19:16 -35.98739 159.31562 41303 ft 422 kts 103°
2026-04-22 19:16 -35.99889 159.38679 41303 ft 423 kts 104°
2026-04-22 19:17 -36.01036 159.45804 41304 ft 423 kts 104°
2026-04-22 19:17 -36.02180 159.52949 41315 ft 423 kts 103°
2026-04-22 19:18 -36.03323 159.60084 41311 ft 423 kts 103°
2026-04-22 19:18 -36.04448 159.67178 41312 ft 423 kts 103°
2026-04-22 19:19 -36.05581 159.74319 41314 ft 424 kts 102°
2026-04-22 19:19 -36.06708 159.81470 41310 ft 424 kts 104°
2026-04-22 19:20 -36.07833 159.88621 41310 ft 424 kts 102°
2026-04-22 19:20 -36.08952 159.95783 41309 ft 424 kts 103°
2026-04-22 19:21 -36.10071 160.02954 41311 ft 425 kts 103°
2026-04-22 19:21 -36.11185 160.10136 41309 ft 425 kts 103°
2026-04-22 19:22 -36.12294 160.17308 41308 ft 425 kts 102°
2026-04-22 19:22 -36.13214 160.23283 41308 ft 425 kts 102°
2026-04-22 19:23 -36.14317 160.30478 41306 ft 425 kts 102°
2026-04-22 19:23 -36.15417 160.37671 41311 ft 425 kts 102°
2026-04-22 19:24 -36.16511 160.44875 41309 ft 426 kts 102°
2026-04-22 19:24 -36.17596 160.52031 41308 ft 426 kts 101°
2026-04-22 19:25 -36.18682 160.59240 41302 ft 426 kts 102°
2026-04-22 19:25 -36.19767 160.66451 41312 ft 426 kts 101°
2026-04-22 19:26 -36.20846 160.73680 41306 ft 426 kts 102°
2026-04-22 19:26 -36.21924 160.80905 41312 ft 426 kts 101°
2026-04-22 19:27 -36.22993 160.88130 41308 ft 426 kts 101°
2026-04-22 19:27 -36.24056 160.95314 41307 ft 427 kts 102°
2026-04-22 19:28 -36.25118 161.02551 41303 ft 427 kts 101°
2026-04-22 19:28 -36.26177 161.09782 41307 ft 427 kts 101°
2026-04-22 19:29 -36.27231 161.17024 41304 ft 427 kts 101°
2026-04-22 19:29 -36.28283 161.24269 41301 ft 427 kts 101°
2026-04-22 19:30 -36.29153 161.30288 41309 ft 427 kts 101°
2026-04-22 19:30 -36.30373 161.38767 41303 ft 427 kts 101°
2026-04-22 19:31 -36.31409 161.46025 41300 ft 427 kts 101°
2026-04-22 19:31 -36.32438 161.53229 41312 ft 427 kts 101°
2026-04-22 19:32 -36.33467 161.60491 41298 ft 427 kts 101°
2026-04-22 19:32 -36.34494 161.67758 41307 ft 427 kts 101°
2026-04-22 19:33 -36.35514 161.75014 41296 ft 427 kts 101°
2026-04-22 19:33 -36.36531 161.82282 41297 ft 427 kts 101°
2026-04-22 19:34 -36.37536 161.89501 41307 ft 427 kts 100°
2026-04-22 19:34 -36.38545 161.96778 41297 ft 427 kts 101°
2026-04-22 19:35 -36.39549 162.04054 41307 ft 427 kts 100°
2026-04-22 19:35 -36.40549 162.11329 41298 ft 427 kts 101°
2026-04-22 19:36 -36.41542 162.18597 41300 ft 427 kts 100°
2026-04-22 19:36 -36.42532 162.25870 41316 ft 427 kts 101°
2026-04-22 19:37 -36.43511 162.33094 41311 ft 427 kts 100°
2026-04-22 19:37 -36.44493 162.40383 41309 ft 427 kts 101°
2026-04-22 19:38 -36.45458 162.47573 41307 ft 427 kts 100°
2026-04-22 19:38 -36.46431 162.54860 41317 ft 427 kts 101°
2026-04-22 19:39 -36.47393 162.62099 41307 ft 427 kts 100°
2026-04-22 19:39 -36.48357 162.69392 41309 ft 428 kts 100°
2026-04-22 19:40 -36.49319 162.76696 41311 ft 428 kts 100°
2026-04-22 19:40 -36.50275 162.84000 41319 ft 428 kts 100°
2026-04-22 19:41 -36.51222 162.91268 41313 ft 428 kts 100°
2026-04-22 19:41 -36.52176 162.98627 41321 ft 428 kts 100°
2026-04-22 19:42 -36.53119 163.05939 41317 ft 428 kts 99°
2026-04-22 19:42 -36.54050 163.13208 41317 ft 428 kts 99°
2026-04-22 19:43 -36.55449 163.24193 41315 ft 429 kts 99°
2026-04-22 19:43 -36.56378 163.31523 41315 ft 429 kts 99°
2026-04-22 19:44 -36.57301 163.38871 41313 ft 429 kts 99°
2026-04-22 19:44 -36.58223 163.46214 41313 ft 430 kts 99°
2026-04-22 19:45 -36.59132 163.53518 41316 ft 430 kts 99°
2026-04-22 19:45 -36.60047 163.60880 41316 ft 430 kts 99°
2026-04-22 19:46 -36.60953 163.68247 41322 ft 430 kts 100°
2026-04-22 19:46 -36.61854 163.75572 41322 ft 430 kts 99°
2026-04-22 19:47 -36.62753 163.82953 41320 ft 431 kts 99°
2026-04-22 19:47 -36.63650 163.90331 41320 ft 431 kts 99°
2026-04-22 19:48 -36.64541 163.97717 41320 ft 431 kts 99°
2026-04-22 19:48 -36.65424 164.05060 41322 ft 431 kts 99°
2026-04-22 19:49 -36.66306 164.12442 41325 ft 431 kts 99°
2026-04-22 19:49 -36.67184 164.19833 41325 ft 431 kts 99°
2026-04-22 19:50 -36.68058 164.27231 41325 ft 432 kts 99°
2026-04-22 19:50 -36.68929 164.34636 41326 ft 432 kts 99°
2026-04-22 19:51 -36.69795 164.42040 41321 ft 432 kts 99°
2026-04-22 19:51 -36.70657 164.49463 41321 ft 433 kts 99°
2026-04-22 19:52 -36.71511 164.56845 41330 ft 433 kts 99°
2026-04-22 19:52 -36.72366 164.64286 41330 ft 433 kts 99°
2026-04-22 19:53 -36.73217 164.71723 41329 ft 433 kts 99°
2026-04-22 19:53 -36.74063 164.79167 41327 ft 434 kts 99°
2026-04-22 19:54 -36.74901 164.86578 41327 ft 434 kts 98°
2026-04-22 19:54 -36.75738 164.94037 41331 ft 434 kts 99°
2026-04-22 19:55 -36.76574 165.01500 41331 ft 434 kts 99°
2026-04-22 19:55 -36.77402 165.08975 41329 ft 435 kts 98°
2026-04-22 19:56 -36.78229 165.16455 41326 ft 435 kts 98°
2026-04-22 19:56 -36.79046 165.23899 41326 ft 436 kts 99°
2026-04-22 19:57 -36.79865 165.31400 41320 ft 436 kts 98°
2026-04-22 19:57 -36.80679 165.38909 41321 ft 437 kts 98°
2026-04-22 19:58 -36.81490 165.46436 41323 ft 437 kts 98°
2026-04-22 19:58 -36.82299 165.53970 41322 ft 438 kts 98°
2026-04-22 20:00 -36.85084 165.80328 41327 ft 439 kts 98°
2026-04-22 20:01 -36.85872 165.87879 41331 ft 439 kts 98°
2026-04-22 20:01 -36.86655 165.95443 41331 ft 439 kts 98°
2026-04-22 20:02 -36.87434 166.03015 41331 ft 439 kts 97°
2026-04-22 20:02 -36.88208 166.10583 41331 ft 439 kts 98°
2026-04-22 20:03 -36.88973 166.18112 41334 ft 439 kts 98°
2026-04-22 20:03 -36.89739 166.25691 41334 ft 440 kts 97°
2026-04-22 20:04 -36.90500 166.33280 41334 ft 440 kts 97°
2026-04-22 20:04 -36.91257 166.40869 41338 ft 440 kts 97°
2026-04-22 20:05 -36.92007 166.48455 41338 ft 440 kts 97°
2026-04-22 20:05 -36.92753 166.56044 41338 ft 440 kts 97°
2026-04-22 20:06 -36.93495 166.63636 41336 ft 440 kts 97°
2026-04-22 20:06 -36.94232 166.71226 41340 ft 440 kts 97°
2026-04-22 20:07 -36.94961 166.78785 41340 ft 440 kts 97°
2026-04-22 20:07 -36.95688 166.86385 41337 ft 440 kts 97°
2026-04-22 20:08 -36.96410 166.93984 41338 ft 440 kts 97°
2026-04-22 20:08 -36.97128 167.01592 41337 ft 440 kts 97°
2026-04-22 20:09 -36.97841 167.09197 41335 ft 440 kts 97°
2026-04-22 20:09 -36.98550 167.16801 41335 ft 440 kts 97°
2026-04-22 20:10 -36.99255 167.24417 41334 ft 440 kts 97°
2026-04-22 20:10 -36.99835 167.30739 41333 ft 440 kts 97°
2026-04-22 20:11 -37.00530 167.38356 41330 ft 441 kts 97°
2026-04-22 20:11 -37.01219 167.45974 41330 ft 441 kts 97°
2026-04-22 20:12 -37.01904 167.53594 41329 ft 441 kts 97°
2026-04-22 20:12 -37.02586 167.61222 41334 ft 441 kts 97°
2026-04-22 20:13 -37.03259 167.68809 41332 ft 441 kts 97°
2026-04-22 20:13 -37.03931 167.76441 41332 ft 441 kts 97°
2026-04-22 20:14 -37.04596 167.84074 41331 ft 441 kts 96°
2026-04-22 20:14 -37.05257 167.91705 41332 ft 441 kts 96°
2026-04-22 20:15 -37.05914 167.99347 41332 ft 441 kts 96°
2026-04-22 20:15 -37.06567 168.06987 41332 ft 441 kts 96°
2026-04-22 20:16 -37.07211 168.14585 41326 ft 442 kts 96°
2026-04-22 20:16 -37.07855 168.22240 41327 ft 442 kts 96°
2026-04-22 20:17 -37.08492 168.29898 41327 ft 442 kts 96°
2026-04-22 20:17 -37.09125 168.37559 41328 ft 442 kts 96°
2026-04-22 20:18 -37.09755 168.45223 41330 ft 443 kts 96°
2026-04-22 20:18 -37.10381 168.52909 41330 ft 443 kts 96°
2026-04-22 20:19 -37.10999 168.60545 41330 ft 443 kts 96°
2026-04-22 20:19 -37.11614 168.68233 41331 ft 443 kts 96°
2026-04-22 20:20 -37.12223 168.75919 41323 ft 444 kts 96°
2026-04-22 20:20 -37.12831 168.83632 41323 ft 444 kts 96°
2026-04-22 20:21 -37.13433 168.91335 41323 ft 444 kts 96°
2026-04-22 20:21 -37.14032 168.99049 41323 ft 444 kts 96°
2026-04-22 20:22 -37.14624 169.06763 41327 ft 445 kts 96°
2026-04-22 20:22 -37.15211 169.14478 41327 ft 445 kts 96°
2026-04-22 20:23 -37.15789 169.22151 41326 ft 445 kts 96°
2026-04-22 20:23 -37.16367 169.29876 41324 ft 445 kts 96°
2026-04-22 20:24 -37.16941 169.37604 41326 ft 445 kts 96°
2026-04-22 20:24 -37.17511 169.45342 41326 ft 446 kts 95°
2026-04-22 20:25 -37.18074 169.53084 41323 ft 446 kts 95°
2026-04-22 20:25 -37.18633 169.60839 41323 ft 446 kts 95°
2026-04-22 20:26 -37.19183 169.68531 41320 ft 446 kts 95°
2026-04-22 20:26 -37.19733 169.76282 41318 ft 446 kts 95°
2026-04-22 20:27 -37.20278 169.84029 41316 ft 446 kts 95°
2026-04-22 20:27 -37.20817 169.91786 41313 ft 446 kts 95°
2026-04-22 20:28 -37.21351 169.99549 41311 ft 447 kts 95°
2026-04-22 20:28 -37.21880 170.07320 41311 ft 447 kts 95°
2026-04-22 20:29 -37.22406 170.15101 41314 ft 447 kts 95°
2026-04-22 20:29 -37.22927 170.22877 41310 ft 447 kts 95°
2026-04-22 20:30 -37.23443 170.30655 41310 ft 448 kts 95°
2026-04-22 20:30 -37.23953 170.38437 41313 ft 452 kts 95°
2026-04-22 20:31 -37.24466 170.46338 41310 ft 456 kts 95°
2026-04-22 20:31 -37.24976 170.54289 41316 ft 458 kts 95°
2026-04-22 20:32 -37.25483 170.62277 41313 ft 459 kts 95°
2026-04-22 20:32 -37.25636 170.70292 41313 ft 460 kts 87°
2026-04-22 20:33 -37.25321 170.78260 41308 ft 460 kts 88°
2026-04-22 20:33 -37.25145 170.86298 41308 ft 461 kts 88°
2026-04-22 20:34 -37.24889 170.94351 41304 ft 462 kts 88°
2026-04-22 20:34 -37.24661 171.02416 41304 ft 462 kts 88°
2026-04-22 20:35 -37.24414 171.10495 41303 ft 463 kts 87°
2026-04-22 20:35 -37.24168 171.18529 41304 ft 463 kts 87°
2026-04-22 20:36 -37.23912 171.26622 41305 ft 463 kts 87°
2026-04-22 20:36 -37.23650 171.34714 41307 ft 464 kts 87°
2026-04-22 20:37 -37.23383 171.42810 41304 ft 464 kts 87°
2026-04-22 20:37 -37.23112 171.50913 41299 ft 465 kts 87°
2026-04-22 20:38 -37.22835 171.59016 41298 ft 465 kts 87°
2026-04-22 20:38 -37.22554 171.67066 41290 ft 465 kts 87°
2026-04-22 20:39 -37.22264 171.75188 41292 ft 466 kts 87°
2026-04-22 20:39 -37.21969 171.83304 41292 ft 466 kts 86°
2026-04-22 20:40 -37.21667 171.91435 41288 ft 466 kts 86°
2026-04-22 20:40 -37.21360 171.99575 41289 ft 466 kts 86°
2026-04-22 20:41 -37.21048 172.07652 41268 ft 466 kts 86°
2026-04-22 20:41 -37.20890 172.11719 41165 ft 469 kts 86°
2026-04-22 20:41 -37.20730 172.15872 40585 ft 480 kts 86°
2026-04-22 20:41 -37.20609 172.18934 40124 ft 470 kts 86°
2026-04-22 20:42 -37.20499 172.21657 39712 ft 460 kts 86°
2026-04-22 20:42 -37.20340 172.25607 39115 ft 447 kts 86°
2026-04-22 20:42 -37.20185 172.29463 38473 ft 435 kts 86°
2026-04-22 20:42 -37.20033 172.33202 37904 ft 424 kts 86°
2026-04-22 20:43 -37.19885 172.36845 37357 ft 412 kts 87°
2026-04-22 20:43 -37.19735 172.40402 36822 ft 407 kts 87°
2026-04-22 20:43 -37.19589 172.43937 36284 ft 405 kts 86°
2026-04-22 20:43 -37.19439 172.47501 35955 ft 414 kts 86°
2026-04-22 20:44 -37.19284 172.51159 35217 ft 439 kts 87°
2026-04-22 20:44 -37.19122 172.55020 35073 ft 445 kts 86°
2026-04-22 20:44 -37.18951 172.58884 35113 ft 437 kts 87°
2026-04-22 20:44 -37.18794 172.62574 35112 ft 410 kts 86°
2026-04-22 20:45 -37.18645 172.66053 35086 ft 388 kts 87°
2026-04-22 20:45 -37.18499 172.69357 35018 ft 370 kts 86°
2026-04-22 20:45 -37.18361 172.72523 34908 ft 358 kts 86°
2026-04-22 20:45 -37.18223 172.75633 34423 ft 355 kts 87°
2026-04-22 20:46 -37.17945 172.81820 32884 ft 357 kts 87°
2026-04-22 20:46 -37.17805 172.84883 32122 ft 357 kts 88°
2026-04-22 20:46 -37.17666 172.87991 31375 ft 357 kts 88°
2026-04-22 20:47 -37.17524 172.91093 30651 ft 356 kts 88°
2026-04-22 20:47 -37.17381 172.94189 29857 ft 355 kts 88°
2026-04-22 20:47 -37.17240 172.97275 29016 ft 353 kts 88°
2026-04-22 20:47 -37.17095 173.00341 28183 ft 351 kts 88°
2026-04-22 20:48 -37.16954 173.03428 27126 ft 357 kts 88°
2026-04-22 20:48 -37.16808 173.06507 26686 ft 345 kts 88°
2026-04-22 20:48 -37.16667 173.09453 26275 ft 333 kts 88°
2026-04-22 20:48 -37.16533 173.12343 25843 ft 333 kts 88°
2026-04-22 20:49 -37.16393 173.15254 25406 ft 335 kts 88°
2026-04-22 20:49 -37.16253 173.18194 24967 ft 339 kts 86°
2026-04-22 20:49 -37.16109 173.21160 24516 ft 342 kts 86°
2026-04-22 20:49 -37.15964 173.24147 24065 ft 345 kts 86°
2026-04-22 20:50 -37.15821 173.27115 23580 ft 347 kts 86°
2026-04-22 20:50 -37.15671 173.30137 23105 ft 349 kts 86°
2026-04-22 20:50 -37.15523 173.33191 22637 ft 351 kts 86°
2026-04-22 20:50 -37.15368 173.36248 22173 ft 352 kts 86°
2026-04-22 20:51 -37.15220 173.39309 21708 ft 352 kts 86°
2026-04-22 20:51 -37.15063 173.42377 21242 ft 353 kts 86°
2026-04-22 20:51 -37.14913 173.45447 20773 ft 353 kts 87°
2026-04-22 20:51 -37.14736 173.48507 20305 ft 352 kts 86°
2026-04-22 20:52 -37.14543 173.51566 19838 ft 352 kts 86°
2026-04-22 20:52 -37.14361 173.54624 19384 ft 351 kts 85°
2026-04-22 20:52 -37.14181 173.57675 18915 ft 350 kts 86°
2026-04-22 20:52 -37.13999 173.60722 18436 ft 348 kts 86°
2026-04-22 20:53 -37.13822 173.63689 17954 ft 343 kts 86°
2026-04-22 20:53 -37.13643 173.66665 17328 ft 343 kts 86°
2026-04-22 20:53 -37.13462 173.69617 16820 ft 334 kts 86°
2026-04-22 20:53 -37.13289 173.72468 16369 ft 323 kts 86°
2026-04-22 20:54 -37.13119 173.75233 15949 ft 314 kts 86°
2026-04-22 20:54 -37.12956 173.77926 15530 ft 306 kts 86°
2026-04-22 20:54 -37.12795 173.80556 15137 ft 300 kts 87°
2026-04-22 20:54 -37.12635 173.83139 14744 ft 295 kts 86°
2026-04-22 20:55 -37.12478 173.85690 14354 ft 291 kts 87°
2026-04-22 20:55 -37.12320 173.88202 13963 ft 287 kts 87°
2026-04-22 20:55 -37.12168 173.90680 13566 ft 283 kts 87°
2026-04-22 20:55 -37.12015 173.93118 13194 ft 278 kts 87°
2026-04-22 20:56 -37.11866 173.95514 12829 ft 274 kts 87°
2026-04-22 20:56 -37.11717 173.97852 12473 ft 270 kts 87°
2026-04-22 20:56 -37.11572 174.00185 12117 ft 267 kts 88°
2026-04-22 20:56 -37.11425 174.02491 11768 ft 266 kts 88°
2026-04-22 20:57 -37.11278 174.04818 11414 ft 268 kts 88°
2026-04-22 20:57 -37.11131 174.07148 11060 ft 269 kts 88°
2026-04-22 20:57 -37.10982 174.09481 10704 ft 269 kts 88°
2026-04-22 20:57 -37.10831 174.11822 10348 ft 269 kts 87°
2026-04-22 20:58 -37.10682 174.14152 9978 ft 268 kts 86°
2026-04-22 20:58 -37.10529 174.16482 9611 ft 268 kts 87°
2026-04-22 20:58 -37.10379 174.18801 9256 ft 266 kts 87°
2026-04-22 20:58 -37.10229 174.21106 8905 ft 265 kts 87°
2026-04-22 20:59 -37.10079 174.23380 8564 ft 265 kts 87°
2026-04-22 20:59 -37.09929 174.25670 8214 ft 264 kts 88°
2026-04-22 20:59 -37.09779 174.27963 7867 ft 262 kts 87°
2026-04-22 20:59 -37.09632 174.30153 7528 ft 243 kts 88°
2026-04-22 21:00 -37.09541 174.31517 7318 ft 232 kts 87°
2026-04-22 21:00 -37.09412 174.33472 7017 ft 219 kts 87°
2026-04-22 21:00 -37.09288 174.35366 6731 ft 216 kts 87°
2026-04-22 21:00 -37.09163 174.37220 6441 ft 212 kts 88°
2026-04-22 21:01 -37.09042 174.39041 6156 ft 208 kts 89°
2026-04-22 21:01 -37.08923 174.40828 5885 ft 205 kts 89°
2026-04-22 21:01 -37.08804 174.42595 5618 ft 203 kts 88°
2026-04-22 21:01 -37.08685 174.44353 5351 ft 202 kts 87°
2026-04-22 21:02 -37.08567 174.46102 5085 ft 201 kts 89°
2026-04-22 21:02 -37.08450 174.47841 4816 ft 201 kts 89°
2026-04-22 21:02 -37.08331 174.49616 4542 ft 204 kts 89°
2026-04-22 21:02 -37.08212 174.51381 4273 ft 203 kts 89°
2026-04-22 21:03 -37.08133 174.53136 4001 ft 202 kts 86°
2026-04-22 21:03 -37.07729 174.54839 3729 ft 205 kts 74°
2026-04-22 21:03 -37.07280 174.56527 3465 ft 202 kts 76°
2026-04-22 21:03 -37.06846 174.58164 3197 ft 195 kts 75°
2026-04-22 21:04 -37.06408 174.59729 3014 ft 183 kts 75°
2026-04-22 21:04 -37.06016 174.61159 2908 ft 169 kts 74°
2026-04-22 21:04 -37.05641 174.62480 2765 ft 158 kts 76°
2026-04-22 21:04 -37.05270 174.63760 2496 ft 156 kts 75°
2026-04-22 21:05 -37.04916 174.65043 2254 ft 152 kts 76°
2026-04-22 21:05 -37.04580 174.66287 2038 ft 152 kts 76°
2026-04-22 21:05 -37.04241 174.67510 1712 ft 143 kts 75°
2026-04-22 21:05 -37.03936 174.68654 1368 ft 132 kts 74°
2026-04-22 21:06 -37.03652 174.69701 1163 ft 120 kts 75°
2026-04-22 21:06 -37.03389 174.70628 1042 ft 102 kts 75°
2026-04-22 21:06 -37.03139 174.71423 851 ft 98 kts 73°
2026-04-22 21:06 -37.02936 174.72221 786 ft 97 kts 75°
2026-04-22 21:07 -37.02723 174.73041 740 ft 101 kts 77°
2026-04-22 21:07 -37.02515 174.73892 589 ft 99 kts 73°
2026-04-22 21:07 -37.02286 174.74685 412 ft 96 kts 78°
2026-04-22 21:07 -37.02070 174.75462 304 ft 93 kts 73°
2026-04-22 21:08 -37.01857 174.76250 203 ft 97 kts 73°
2026-04-22 21:08 -37.01641 174.77044 60 ft 97 kts 72°
2026-04-22 21:08 -37.01430 174.77822 24 ft 90 kts 73°
2026-04-22 21:08 -37.01248 174.78475 19 ft 70 kts 69°
2026-04-22 21:09 -37.01073 174.78948 19 ft 53 kts 50°
2026-04-22 21:09 -37.00874 174.79176 19 ft 16 kts 50°
2026-04-22 21:09 -37.00827 174.79301 19 ft 16 kts 71°
2026-04-22 21:09 -37.00789 174.79432 19 ft 16 kts 72°
2026-04-22 21:10 -37.00751 174.79569 19 ft 17 kts 71°
2026-04-22 21:10 -37.00712 174.79712 19 ft 18 kts 70°
2026-04-22 21:10 -37.00669 174.79860 19 ft 18 kts 69°
2026-04-22 21:10 -37.00616 174.79971 18 ft 13 kts
2026-04-22 21:11 -37.00534 174.79984 19 ft 13 kts 65°
2026-04-22 21:11 -37.00503 174.80098 19 ft 14 kts 71°
2026-04-22 21:11 -37.00468 174.80222 19 ft 16 kts 70°
2026-04-22 21:11 -37.00431 174.80356 19 ft 17 kts 71°
2026-04-22 21:12 -37.00376 174.80443 19 ft 12 kts 17°
2026-04-22 21:12 -37.00292 174.80425 19 ft 12 kts 341°
2026-04-22 21:12 -37.00255 174.80402 19 ft 3 kts 294°
2026-04-22 21:12 -37.00261 174.80370 19 ft 5 kts 252°
2026-04-22 21:13 -37.00263 174.80362 19 ft 0 kts 250°
2026-04-22 21:13 -37.00264 174.80360 19 ft 0 kts 252°